Tracking 19570 objects as of 21-Feb-2019
HD Live streaming from Space Station
objects crossing your sky now

COSMOS 80

Track COSMOS 80 now!
10-day predictions
COSMOS 80 is classified as:


NORAD ID: 1570
Int'l Code: 1965-070A
Perigee: 1,381.4 km
Apogee: 1,538.8 km
Inclination: 56.1 °
Period: 114.9 minutes
Semi major axis: 7831 km
RCS: 0.3558 m2 (medium)
Launch date: September 3, 1965
Source: Commonwealth of Independent States (former USSR) (CIS)
Launch site: TYURATAM MISSILE AND SPACE COMPLEX (TTMTR)
aabbcc
Your satellite tracking list
Your tracking list is empty




NASA's NSSDC Master Catalog

Two Line Element Set (TLE):
1  1570U 65070A   19051.78870321 -.00000099 +00000-0 -19484-4 0  9993
2  1570 056.0558 163.9047 0100484 298.1262 225.5481 12.52760572446335
Source of the keplerian elements: AFSPC